Simultaneous Nadir Overpasses (SNOs) Predictions

Prediction of SNOs between GOES-15 and FY3D Satellite Orbit:

Table of predicted SNOs for the next 14.0 days since TLE Epoch: 9/10/2022
Index Date Time (GOES-15) GOES-15 Lat,Lon FY3D Lat,Lon Distance(km) Time Diff (sec)
1 09/10/2022 22:32:47 -0.34,-127.68 -0.93,-130.19 286.66 80
2 09/11/2022 22:17:01 -0.35,-127.66 0.06,-125.73 219.62 80
3 09/13/2022 10:39:18 0.33,-127.68 1.13,-131.10 390.89 80
4 09/14/2022 10:18:13 0.34,-127.65 0.14,-126.64 114.57 80
5 09/16/2022 22:22:14 -0.33,-127.52 -0.33,-127.59 7.86 80
6 09/17/2022 22:06:28 -0.33,-127.49 0.66,-123.13 497.76 80
7 09/19/2022 10:28:46 0.31,-127.50 0.54,-128.50 113.66 80
8 09/20/2022 10:07:40 0.32,-127.47 -0.45,-124.04 390.96 80
9 09/21/2022 22:30:05 -0.30,-127.35 -0.77,-129.44 238.64 80
10 09/22/2022 22:14:20 -0.30,-127.31 0.23,-124.98 266.43 80
